FW2347 Weather Reports


Display with metric or nautical units.
time (UTC)temp
F
wind
direction
speed
MPH
gust
MPH
rain 1hr
in
rain 24hr
in
rain mn
in
humidity
%
barometer
mb
20260905040017 65 5 0.0 0.0 0.00 0.00 0.00 54 1018.6
20260905034511 65 5 0.0 0.0 0.00 0.00 0.00 49 1018.6
20260905033101 65 5 0.0 0.0 0.00 0.00 0.00 50 1018.6
20260905031553 65 360 0.0 0.0 0.00 0.00 0.00 54 1018.4
20260905030048 66 360 0.0 0.0 0.00 0.00 0.00 53 1018.5
20260905024538 65 360 0.0 0.0 0.00 0.00 0.00 55 1018.4
20260905023019 66 0.0 0.0 0.00 0.00 0.00 55 1018.4
20260905021508 65 5 0.0 0.0 0.00 0.00 0.00 54 1018.6
20260905020004 66 360 0.0 0.0 0.00 0.00 0.00 56 1018.5
20260905014548 66 5 0.0 0.0 0.00 0.00 0.00 58 1018.4
20260905013028 66 5 0.0 0.0 0.00 0.00 0.00 59 1018.6
20260905011506 66 0.0 0.0 0.00 0.00 0.00 59 1018.6
20260905010108 67 0.0 0.0 0.00 0.00 0.00 61 1018.6
20260905004552 67 360 0.0 0.0 0.00 0.00 0.00 61 1018.6
20260905003032 68 360 0.0 0.0 0.00 0.00 0.00 63 1018.6
20260905001507 68 360 0.0 0.0 0.00 0.00 0.00 64 1018.7
20260904234557 69 360 0.0 0.0 0.00 0.00 0.00 66 1018.8
20260904233028 69 360 0.0 0.0 0.00 0.00 0.00 68 1018.8
20260904231504 70 360 0.0 0.0 0.00 0.00 0.00 69 1018.7
20260904230056 70 360 0.0 0.0 0.00 0.00 0.00 70 1018.6
20260904224556 70 5 0.0 0.0 0.00 0.00 0.00 70 1018.7
20260904223048 70 5 0.0 0.0 0.00 0.00 0.00 72 1018.7
20260904221532 71 5 0.0 0.0 0.00 0.00 0.00 72 1018.7
20260904220032 72 5 0.0 0.0 0.00 0.00 0.00 72 1018.7
20260904214536 72 5 0.0 0.0 0.00 0.00 0.00 72 1018.6
20260904213028 73 5 0.0 0.0 0.00 0.00 0.00 72 1018.7
20260904211517 73 360 0.0 0.0 0.00 0.00 0.00 71 1018.4
20260904210008 74 360 0.0 0.0 0.00 0.00 0.00 71 1018.7
20260904204512 74 5 0.0 0.0 0.00 0.00 0.00 70 1018.6
20260904203003 75 360 0.0 0.0 0.00 0.00 0.00 69 1018.6
20260904201600 76 360 0.0 0.0 0.00 0.00 0.00 68 1018.4
20260904200032 78 5 0.0 0.0 0.00 0.00 0.00 66 1018.2
20260904194529 79 0.0 0.0 0.00 0.00 0.00 65 1018.2
20260904193024 80 360 0.0 0.0 0.00 0.00 0.00 62 1017.9
20260904191525 82 5 0.0 0.0 0.00 0.00 0.00 60 1017.8
20260904190021 84 360 0.0 0.0 0.00 0.00 0.00 58 1017.5
20260904184506 85 5 0.0 0.0 0.00 0.00 0.00 56 1017.3
20260904183120 86 5 0.0 0.0 0.00 0.00 0.00 55 1017.1
20260904181547 87 0.0 0.0 0.00 0.00 0.00 53 1017.0
20260904180025 89 0.0 0.0 0.00 0.00 0.00 51 1016.5
20260904174524 90 0.0 0.0 0.00 0.00 0.00 49 1016.0
20260904173006 91 5 0.0 0.0 0.00 0.00 0.00 47 1016.0
20260904171556 92 5 0.0 0.0 0.00 0.00 0.00 46 1015.6
20260904170050 93 360 0.0 0.0 0.00 0.00 0.00 44 1015.5
20260904164544 94 0.0 0.0 0.00 0.00 0.00 39 1015.3
20260904163048 94 0.0 0.0 0.00 0.00 0.00 40 1015.3
20260904161600 97 360 0.0 0.0 0.00 0.00 0.00 36 1015.2
20260904160052 99 0.0 0.0 0.00 0.00 0.00 25 1015.3
20260904154544 99 0.0 0.0 0.00 0.00 0.00 25 1015.1
20260904153043 99 5 0.0 0.0 0.00 0.00 0.00 25 1015.2
20260904151519 99 5 0.0 0.0 0.00 0.00 0.00 26 1015.2
20260904150028 99 5 0.0 0.0 0.00 0.00 0.00 25 1015.3
20260904144500 100 5 0.0 0.0 0.00 0.00 0.00 26 1015.3
20260904143057 99 0.0 0.0 0.00 0.00 0.00 25 1015.4
20260904141551 99 360 0.0 0.0 0.00 0.00 0.00 26 1015.5
20260904140057 99 0.0 0.0 0.00 0.00 0.00 26 1015.6
20260904134536 99 360 0.0 0.0 0.00 0.00 0.00 26 1015.7
20260904133012 98 360 0.0 0.0 0.00 0.00 0.00 25 1015.9
20260904131502 98 360 0.0 0.0 0.00 0.00 0.00 26 1016.0
20260904130045 98 0.0 0.0 0.00 0.00 0.00 26 1016.2
20260904124518 98 360 0.0 0.0 0.00 0.00 0.00 26 1016.3
20260904123005 98 360 0.0 0.0 0.00 0.00 0.00 27 1016.4
20260904121504 98 0.0 0.0 0.00 0.00 0.00 27 1016.5
20260904120107 96 5 0.0 0.0 0.00 0.00 0.00 35 1016.5
20260904114542 96 5 0.0 0.0 0.00 0.00 0.00 35 1016.5
20260904113033 95 5 0.0 0.0 0.00 0.00 0.00 40 1016.8
20260904111524 94 5 0.0 0.0 0.00 0.00 0.00 44 1016.9
20260904110105 92 0.0 0.0 0.00 0.00 0.00 46 1017.0
20260904104550 91 5 0.0 0.0 0.00 0.00 0.00 48 1017.4
20260904103018 89 0.0 0.0 0.00 0.00 0.00 51 1017.5
20260904101506 88 5 0.0 0.0 0.00 0.00 0.00 54 1017.8
20260904100049 86 360 0.0 0.0 0.00 0.00 0.00 55 1018.0
20260904094539 85 360 0.0 0.0 0.00 0.00 0.00 57 1018.1
20260904093017 85 360 0.0 0.0 0.00 0.00 0.00 58 1018.3
20260904091506 83 360 0.0 0.0 0.00 0.00 0.00 61 1018.3
20260904090058 81 360 0.0 0.0 0.00 0.00 0.00 65 1018.3
20260904084551 80 0.0 0.0 0.00 0.00 0.00 66 1018.4
20260904083033 78 360 0.0 0.0 0.00 0.00 0.00 69 1018.4
20260904081521 77 360 0.0 0.0 0.00 0.00 0.00 70 1018.4
20260904080020 77 5 0.0 0.0 0.00 0.00 0.00 70 1018.5
20260904074504 75 360 0.0 0.0 0.00 0.00 0.00 70 1018.6
20260904073105 72 360 0.0 0.0 0.00 0.00 0.00 60 1018.6
20260904071535 70 5 0.0 0.0 0.00 0.00 0.00 50 1018.7
20260904070042 70 5 0.0 0.0 0.00 0.00 0.00 27 1018.8
20260904064522 66 5 0.0 0.0 0.00 0.00 0.00 15 1018.8
20260904063025 63 5 0.0 0.0 0.00 0.00 0.00 11 1018.9
20260904061503 61 0.0 0.0 0.00 0.00 0.00 12 1019.0
20260904060113 61 5 0.0 0.0 0.00 0.00 0.00 13 1018.8
20260904054549 61 0.0 0.0 0.00 0.00 0.00 13 1018.7
20260904053037 61 5 0.0 0.0 0.00 0.00 0.00 14 1018.8
20260904051525 61 360 0.0 0.0 0.00 0.00 0.00 16 1018.8
20260904050104 61 360 0.0 0.0 0.00 0.00 0.00 15 1018.9
20260904044545 62 360 0.0 0.0 0.00 0.00 0.00 15 1018.9
20260904043027 62 5 0.0 0.0 0.00 0.00 0.00 18 1019.0
20260904041521 62 5 0.0 0.0 0.00 0.00 0.00 19 1019.0